Location: *
(49.4547°N, 7.9131°E)
Time: 04:07:59
(UTC+00:00)

In-Cosmos 22 - Pass Details

Date: 22 September 2019
Orbit: 785 x 876 km, 81.2° (Epoch: 18 October)

Event Time Altitude Azimuth Distance (km) Brightness Sun altitude
Rises 18:28:27 0° 349° (N) 3,311 7.6 -10.7°
Reaches altitude 10° 18:30:50 10° 352° (N) 2,386 6.8 -11.1°
Maximum altitude 18:36:12 70° 76° (ENE) 865 4.1 -11.9°
Drops below altitude 10° 18:41:40 10° 160° (SSE) 2,425 6.3 -12.8°
Sets 18:44:06 0° 163° (SSE) 3,368 7.0 -13.2°
